When you browse on this site, cookies collect data to enhance your experience and personalize the content and advertising you see.
Visit our Privacy Policy to learn more. By continuing to use the site, you agree to this use of cookies and data.
  • In Latvia
  • List of Countries
  • For 7 days
  • Water Temperature
  • Satellite Maps
  • Weather Map
  • Weather Widgets
  • user-avatar
    Login

    Hourly Weather Locarno

    Today, 20 July, Saturday

    Time Temperature Precipitation Wind Pressure Humidity
    00:00 +19°C° 0 mm 1 mps 714 mmHg 93%
    01:00 +19°C° 0 mm 1 mps 714 mmHg 93%
    02:00 +19°C° 0 mm 1 mps 714 mmHg 93%
    03:00 +19°C° 0 mm 1 mps 714 mmHg 94%
    04:00 +18°C° 0 mm 1 mps 714 mmHg 94%
    05:00 +19°C° 0 mm 1 mps 714 mmHg 92%
    06:00 +20°C° 0 mm 1 mps 714 mmHg 91%
    07:00 +20°C° 0 mm 0 mps 715 mmHg 89%
    08:00 +23°C° 0.7 mm 1 mps 715 mmHg 88%
    09:00 +24°C° 0.7 mm 1 mps 715 mmHg 87%
    10:00 +25°C° 0.7 mm 1 mps 715 mmHg 85%
    11:00 +25°C° 1 mm 1 mps 715 mmHg 84%
    12:00 +25°C° 1 mm 1 mps 715 mmHg 83%
    13:00 +26°C° 0 mm 1 mps 715 mmHg 80%
    14:00 +26°C° 1.3 mm 1 mps 715 mmHg 81%
    15:00 +26°C° 1.3 mm 1 mps 715 mmHg 82%
    16:00 +26°C° 1.3 mm 1 mps 715 mmHg 83%
    17:00 +25°C° 0.3 mm 1 mps 715 mmHg 85%
    18:00 +22°C° 0.3 mm 0 mps 715 mmHg 87%
    19:00 +22°C° 0.3 mm 0 mps 715 mmHg 88%
    20:00 +23°C° 0.1 mm 1 mps 715 mmHg 89%
    21:00 +22°C° 0.1 mm 1 mps 715 mmHg 90%
    22:00 +21°C° 0.1 mm 1 mps 716 mmHg 91%
    23:00 +20°C° 0 mm 1 mps 716 mmHg 91%

    Tomorrow, 21 July, Sunday

    Time Temperature Precipitation Wind Pressure Humidity
    00:00 +20°C° 0 mm 1 mps 716 mmHg 90%
    01:00 +20°C° 0 mm 1 mps 716 mmHg 90%
    02:00 +20°C° 0 mm 1 mps 716 mmHg 89%
    03:00 +20°C° 0 mm 1 mps 716 mmHg 89%
    04:00 +19°C° 0 mm 1 mps 716 mmHg 89%
    05:00 +21°C° 0 mm 1 mps 716 mmHg 87%
    06:00 +22°C° 0 mm 1 mps 716 mmHg 85%
    07:00 +23°C° 0 mm 1 mps 717 mmHg 83%
    08:00 +25°C° 0 mm 1 mps 717 mmHg 75%
    09:00 +27°C° 0 mm 1 mps 718 mmHg 66%
    10:00 +29°C° 0 mm 1 mps 718 mmHg 58%
    11:00 +29°C° 0.1 mm 1 mps 718 mmHg 57%
    12:00 +30°C° 0.1 mm 1 mps 718 mmHg 56%
    13:00 +30°C° 0.1 mm 1 mps 718 mmHg 56%
    14:00 +30°C° 0.5 mm 1 mps 718 mmHg 59%
    15:00 +30°C° 0.5 mm 1 mps 718 mmHg 62%
    16:00 +28°C° 0.5 mm 0 mps 718 mmHg 65%
    17:00 +27°C° 0.5 mm 0 mps 717 mmHg 71%
    18:00 +26°C° 0.5 mm 0 mps 717 mmHg 77%
    19:00 +24°C° 0.5 mm 0 mps 717 mmHg 82%
    20:00 +25°C° 0.1 mm 1 mps 718 mmHg 85%
    21:00 +23°C° 0.1 mm 1 mps 718 mmHg 87%
    22:00 +20°C° 0.1 mm 2 mps 718 mmHg 90%
    23:00 +20°C° 0 mm 2 mps 718 mmHg 89%

    Day after tomorrow, 22 July, Monday

    Time Temperature Precipitation Wind Pressure Humidity
    00:00 +19°C° 0 mm 2 mps 718 mmHg 88%
    01:00 +19°C° 0 mm 2 mps 718 mmHg 87%
    02:00 +19°C° 0 mm 2 mps 718 mmHg 86%
    03:00 +18°C° 0 mm 2 mps 718 mmHg 84%
    04:00 +18°C° 0 mm 2 mps 718 mmHg 82%
    05:00 +19°C° 0 mm 2 mps 718 mmHg 80%
    06:00 +22°C° 0 mm 1 mps 718 mmHg 78%
    07:00 +23°C° 0 mm 1 mps 719 mmHg 75%
    08:00 +25°C° 0 mm 1 mps 719 mmHg 67%
    09:00 +28°C° 0 mm 1 mps 719 mmHg 59%
    10:00 +30°C° 0 mm 1 mps 720 mmHg 51%
    11:00 +31°C° 0 mm 1 mps 719 mmHg 48%
    12:00 +31°C° 0 mm 1 mps 719 mmHg 46%
    13:00 +32°C° 0 mm 2 mps 719 mmHg 44%
    14:00 +32°C° 0 mm 2 mps 719 mmHg 46%
    15:00 +32°C° 0 mm 2 mps 719 mmHg 47%
    16:00 +32°C° 0 mm 2 mps 718 mmHg 49%
    17:00 +30°C° 0.2 mm 1 mps 718 mmHg 60%
    18:00 +29°C° 0.2 mm 1 mps 718 mmHg 71%
    19:00 +25°C° 0.2 mm 0 mps 718 mmHg 81%
    20:00 +26°C° 0.1 mm 1 mps 718 mmHg 84%
    21:00 +24°C° 0.1 mm 1 mps 718 mmHg 86%
    22:00 +23°C° 0.1 mm 1 mps 719 mmHg 88%
    23:00 +23°C° 0 mm 1 mps 718 mmHg 88%

    23 July, Tuesday

    Time Temperature Precipitation Wind Pressure Humidity
    00:00 +22°C° 0 mm 1 mps 718 mmHg 89%
    01:00 +22°C° 0 mm 1 mps 718 mmHg 89%
    02:00 +22°C° 0 mm 1 mps 718 mmHg 89%
    03:00 +22°C° 0 mm 1 mps 717 mmHg 89%
    04:00 +21°C° 0 mm 1 mps 717 mmHg 89%
    05:00 +22°C° 0 mm 1 mps 717 mmHg 87%
    06:00 +24°C° 0 mm 1 mps 717 mmHg 84%
    07:00 +23°C° 0 mm 0 mps 717 mmHg 82%
    08:00 +27°C° 0 mm 1 mps 717 mmHg 76%
    09:00 +28°C° 0 mm 1 mps 717 mmHg 70%
    10:00 +30°C° 0 mm 1 mps 718 mmHg 64%
    11:00 +30°C° 0.5 mm 1 mps 717 mmHg 64%
    12:00 +31°C° 0.5 mm 2 mps 717 mmHg 65%
    13:00 +31°C° 0.5 mm 2 mps 717 mmHg 65%
    14:00 +30°C° 0.5 mm 2 mps 717 mmHg 67%
    15:00 +30°C° 0.5 mm 1 mps 716 mmHg 69%
    16:00 +30°C° 0.5 mm 1 mps 716 mmHg 71%
    17:00 +29°C° 0.3 mm 1 mps 716 mmHg 76%
    18:00 +28°C° 0.3 mm 1 mps 716 mmHg 81%
    19:00 +25°C° 0.3 mm 0 mps 716 mmHg 86%
    20:00 +24°C° 0.1 mm 0 mps 716 mmHg 88%
    21:00 +25°C° 0.1 mm 1 mps 716 mmHg 90%
    22:00 +23°C° 0.1 mm 1 mps 716 mmHg 93%
    23:00 +23°C° 0.1 mm 1 mps 716 mmHg 93%

    24 July, Wednesday

    Time Temperature Precipitation Wind Pressure Humidity
    00:00 +23°C° 0.1 mm 1 mps 716 mmHg 93%
    01:00 +23°C° 0.1 mm 1 mps 716 mmHg 94%
    02:00 +23°C° 0 mm 1 mps 716 mmHg 93%
    03:00 +23°C° 0 mm 1 mps 716 mmHg 93%
    04:00 +23°C° 0 mm 1 mps 716 mmHg 92%
    05:00 +23°C° 0 mm 1 mps 716 mmHg 91%
    06:00 +22°C° 0 mm 0 mps 716 mmHg 89%
    07:00 +23°C° 0 mm 0 mps 716 mmHg 88%
    08:00 +25°C° 0 mm 0 mps 716 mmHg 80%
    09:00 +29°C° 0 mm 1 mps 716 mmHg 72%
    10:00 +30°C° 0 mm 1 mps 717 mmHg 64%
    11:00 +31°C° 0.2 mm 1 mps 716 mmHg 64%
    12:00 +31°C° 0.2 mm 1 mps 716 mmHg 64%
    13:00 +31°C° 0.2 mm 2 mps 716 mmHg 63%
    14:00 +31°C° 0.2 mm 1 mps 716 mmHg 62%
    15:00 +31°C° 0.2 mm 1 mps 716 mmHg 61%
    16:00 +32°C° 0.2 mm 1 mps 715 mmHg 60%
    17:00 +31°C° 0 mm 1 mps 715 mmHg 66%
    18:00 +29°C° 0 mm 1 mps 715 mmHg 72%
    19:00 +28°C° 0 mm 1 mps 715 mmHg 78%
    20:00 +27°C° 0.1 mm 1 mps 715 mmHg 82%
    21:00 +25°C° 0.1 mm 1 mps 715 mmHg 86%
    22:00 +24°C° 0.1 mm 1 mps 715 mmHg 90%
    23:00 +23°C° 0.1 mm 1 mps 715 mmHg 91%

    25 July, Thursday

    Time Temperature Precipitation Wind Pressure Humidity
    00:00 +23°C° 0.1 mm 1 mps 715 mmHg 91%
    01:00 +23°C° 0.1 mm 1 mps 715 mmHg 92%
    02:00 +22°C° 0 mm 1 mps 715 mmHg 92%
    03:00 +22°C° 0 mm 1 mps 714 mmHg 93%
    04:00 +22°C° 0 mm 1 mps 714 mmHg 93%
    05:00 +23°C° 0 mm 1 mps 715 mmHg 91%
    06:00 +24°C° 0 mm 1 mps 715 mmHg 88%
    07:00 +23°C° 0 mm 0 mps 715 mmHg 86%
    08:00 +27°C° 0 mm 1 mps 715 mmHg 79%
    09:00 +29°C° 0 mm 1 mps 715 mmHg 71%
    10:00 +31°C° 0 mm 1 mps 715 mmHg 64%
    11:00 +31°C° 0 mm 1 mps 715 mmHg 59%
    12:00 +32°C° 0 mm 1 mps 715 mmHg 54%
    13:00 +34°C° 0 mm 2 mps 715 mmHg 50%
    14:00 +34°C° 0 mm 2 mps 715 mmHg 49%
    15:00 +34°C° 0 mm 2 mps 714 mmHg 48%
    16:00 +34°C° 0 mm 2 mps 714 mmHg 47%
    17:00 +31°C° 0 mm 1 mps 714 mmHg 56%
    18:00 +30°C° 0 mm 1 mps 714 mmHg 65%
    19:00 +28°C° 0 mm 1 mps 714 mmHg 74%
    20:00 +26°C° 0 mm 1 mps 714 mmHg 76%
    21:00 +25°C° 0 mm 1 mps 714 mmHg 79%
    22:00 +23°C° 0 mm 1 mps 714 mmHg 82%
    23:00 +23°C° 0 mm 1 mps 714 mmHg 83%
    Show more